This is the latest recevied weather packets stored in our database for station/object HB9BTL-13. If no packets are shown the sender has not sent any weather packets the latest 10 day(s).
| Time | Temp. | Humidity | Pressure | Rain* | Wind** | Luminosity | Snow |
|---|---|---|---|---|---|---|---|
| 1777947430 | 12.22° C | 97% | 1011.4 hPa | - | - | - | - |
| 1777946525 | 12.22° C | 97% | 1011.3 hPa | - | - | - | - |
| 1777945619 | 12.78° C | 95% | 1011.4 hPa | - | - | - | - |
| 1777944714 | 12.78° C | 94% | 1011.5 hPa | - | - | - | - |
| 1777943809 | 12.22° C | 97% | 1011.6 hPa | - | - | - | - |
| 1777942903 | 12.78° C | 96% | 1011.8 hPa | - | - | - | - |
| 1777941998 | 12.78° C | 97% | 1012 hPa | - | - | - | - |
| 1777941092 | 13.33° C | 93% | 1012.2 hPa | - | - | - | - |
| 1777940188 | 13.33° C | 94% | 1012.4 hPa | - | - | - | - |
| 1777939282 | 13.33° C | 93% | 1012.5 hPa | - | - | - | - |
| 1777938377 | 13.33° C | 92% | 1012.6 hPa | - | - | - | - |
| 1777937471 | 13.33° C | 93% | 1012.8 hPa | - | - | - | - |
| 1777936566 | 13.33° C | 92% | 1012.9 hPa | - | - | - | - |
| 1777935661 | 13.33° C | 93% | 1013 hPa | - | - | - | - |
| 1777934755 | 13.89° C | 93% | 1013.1 hPa | - | - | - | - |
| 1777933850 | 13.89° C | 91% | 1013.3 hPa | - | - | - | - |
| 1777932944 | 13.89° C | 92% | 1013.3 hPa | - | - | - | - |
| 1777932039 | 13.89° C | 90% | 1013.2 hPa | - | - | - | - |
| 1777931134 | 14.44° C | 90% | 1013.4 hPa | - | - | - | - |
| 1777930228 | 15° C | 90% | 1013.6 hPa | - | - | - | - |
| 1777929323 | 15° C | 89% | 1013.8 hPa | - | - | - | - |
| 1777928417 | 15° C | 91% | 1014 hPa | - | - | - | - |
| 1777927512 | 15° C | 86% | 1014 hPa | - | - | - | - |
| 1777926606 | 15.56° C | 87% | 1013.9 hPa | - | - | - | - |
| 1777925701 | 15° C | 91% | 1014 hPa | - | - | - | - |
* Rain since midnight (hover to see other rain measurements)
** Current wind speed in m/s (hover to see current wind gust speed)